Vorticity
-3 12 13 -12 44 33 19 16 5 19 11 -6 17 4 -21 -35 13 -8 -21 9 5 1 17 5 16 3 -19 32 -2 22 4 12 14 2 3 -2 24 19 -1 -4 7 4 4 9
4 5 37 7 53 11 22 13 -4 16 25 -13 -8 12 6 -1 -8 13 3 -22 19 10 8 19 3 14 14 -15 11 25 12 32 28 43 28 19 4 14 3 13 10 6 -17 -18
5 6 37 22 42 16 3 3 -4 29 19 13 19 16 7 -2 8 -1 17 -1 -33 4 7 4 51 12 10 2 3 16 9 5 -16 -18 -11 7 11 10 6 13 7 5 -4 13
5 7 22 -5 34 14 -20 13 10 17 43 11 -20 31 28 1 -2 30 -20 24 -7 -12 -1 20 6 6 19 22 17 29 -7 7 13 11 9 13 12 13 -4 10 18 3 12 11
11 4 9 41 11 11 -27 46 17 13 6 8 -15 6 9 13 4 -28 20 15 7 1 -6 -11 35 8 7 15 1 19 -1 1 14 7 2 2 5 -0 5 5 2 0 0 5
10 1 13 41 32 6 -7 35 -14 0 -8 28 34 -24 9 11 3 9 -7 44 9 4 12 1 12 -9 12 5 21 7 13 -4 3 6 6 10 35 13 7 0 -3 -3 -1 -0
6 3 11 33 52 2 -10 36 -41 30 26 0 12 27 -6 -1 5 10 16 -29 33 12 -8 -9 12 13 2 13 15 14 13 4 12 18 21 15 21 9 13 21 23 24 23 24
4 6 1 75 43 -17 -24 71 -19 12 2 41 -9 14 22 5 1 2 5 15 -8 27 -4 4 17 24 17 14 3 12 12 6 4 -12 20 -18 -9 9 12 16 19 19 4 6
2 14 52 9 12 22 -48 73 -16 -41 20 16 -9 14 46 35 7 9 7 17 33 5 4 5 6 -6 8 9 30 12 14 9 20 19 8 -7 38 39 32 24 -2 4 9 9
13 13 63 1 34 2 -33 52 -2 -44 39 -25 48 3 -38 27 34 8 1 17 -10 -4 10 13 6 19 15 7 -2 5 3 12 4 1 -5 15 8 -4 6 19 3 26 11 10
10 29 40 -8 18 4 -5 36 7 -9 17 31 16 3 2 2 25 26 14 24 20 -0 -6 10 -6 8 10 12 21 6 4 -15 12 19 15 21 18 14 7 14 14 6 14 12
22 23 13 -6 -6 -13 36 20 -19 -45 48 17 8 21 30 -1 -31 5 23 20 42 9 -6 -7 24 -9 28 15 12 9 19 -15 -2 -12 13 -8 2 15 32 29 3 11 14 14
24 8 12 -3 26 -39 23 14 -11 -21 43 9 1 29 12 13 19 -2 60 1 2 41 -17 4 2 13 -9 13 6 19 8 11 -4 9 12 3 5 7 8 8 5 4 13 7
26 12 14 15 5 -23 27 24 -2 -18 -7 18 23 14 24 23 11 -5 -11 13 -5 14 11 -1 -1 6 -16 -2 -23 33 18 27 3 3 -2 6 10 10 4 8 12 9 6 7
11 19 16 46 14 -48 15 34 -15 -41 -14 15 45 1 6 9 38 11 23 19 7 23 12 4 5 9 12 33 -6 -3 15 -8 4 -6 8 8 3 13 8 7 7 7 3 3
22 11 36 34 12 28 -1 19 30 -14 -24 -2 15 34 13 -3 10 32 3 11 16 7 1 20 23 23 20 25 27 12 23 21 8 7 11 8 13 6 8 8 9 7 6 5
43 45 6 39 26 9 1 26 44 -44 -11 -10 25 26 18 14 5 38 6 14 19 10 13 7 0 11 14 -7 -3 20 10 9 10 12 9 5 1 8 11 9 8 8 8 7
18 34 14 1 9 6 49 9 18 29 -9 -44 11 20 27 12 8 20 6 8 -3 8 11 -32 4 2 7 20 -3 11 30 14 13 12 10 4 7 7 10 11 9 8 10 9
11 3 -7 14 5 20 9 47 1 1 -30 15 5 -10 41 39 20 19 15 1 9 4 66 13 29 20 9 6 24 -7 -0 3 3 10 18 1 4 6 9 9 9 13 12 12
5 2 9 12 10 43 -12 19 4 40 33 -35 17 22 -8 55 23 32 0 21 1 8 4 17 6 4 14 35 3 4 17 19 10 9 8 11 14 9 11 13 13 13 11 9
27 21 2 14 16 46 -17 -43 17 25 24 29 9 7 15 30 10 8 -20 4 6 5 23 -6 20 9 3 8 11 3 6 8 12 11 2 12 9 4 20 17 13 7 7 15
-24 50 32 17 -7 29 -2 -5 18 32 8 26 23 24 12 15 5 -2 -0 -2 15 8 30 9 23 5 -0 11 18 13 12 17 11 10 10 9 10 15 12 12 9 17 20 14
-2 10 -23 4 2 9 29 -4 21 16 25 14 9 16 8 26 -11 22 8 20 15 15 15 10 17 18 19 17 12 13 15 12 8 8 9 23 12 20 15 16 12 17 14 13
28 6 18 -2 2 21 23 13 18 31 14 23 1 0 -12 13 2 11 7 12 11 0 4 8 18 25 17 16 18 15 14 14 20 9 10 12 14 19 15 12 11 14 8 6
6 16 -5 19 34 26 22 12 16 13 21 22 10 18 4 21 3 9 10 9 11 13 18 19 18 16 20 18 14 15 15 10 10 12 15 16 13 13 14 12 10 10 11 8
1 31 28 21 6 12 9 12 12 14 17 16 -1 2 14 13 16 2 12 4 12 19 14 6 6 12 8 1 8 18 19 13 16 16 19 13 9 9 10 13 11 8 9 7
24 21 6 13 15 9 11 14 14 14 14 -15 -5 10 18 19 15 7 16 7 22 16 7 15 22 19 9 6 9 12 10 15 16 11 10 6 14 13 12 10 9 9 6 5
Height
2916 2922 2931 2942 2955 2969 2983 2992 3000 3011 3027 3033 3029 3026 3035 3046 3055 3060 3063 3065 3067 3069 3072 3074 3078 3080 3084 3086 3090 3091 3094 3096 3097 3099 3101 3102 3102 3102 3103 3104 3104 3101 3100 3098
2902 2911 2918 2932 2943 2956 2970 2979 2991 3002 3015 3014 3011 3021 3030 3040 3048 3053 3057 3060 3063 3066 3068 3071 3074 3077 3081 3083 3085 3087 3090 3091 3093 3095 3099 3098 3097 3097 3099 3099 3098 3097 3098 3095
2889 2899 2908 2920 2932 2948 2962 2972 2982 2992 2995 3002 3006 3012 3020 3030 3039 3043 3049 3052 3058 3061 3064 3066 3069 3073 3076 3078 3081 3085 3086 3087 3088 3090 3091 3094 3094 3095 3095 3095 3095 3093 3091 3091
2876 2886 2897 2909 2924 2938 2948 2956 2964 2970 2973 2981 2993 3005 3011 3020 3028 3033 3043 3045 3050 3056 3061 3062 3065 3068 3071 3074 3076 3079 3081 3082 3084 3086 3087 3088 3089 3090 3091 3091 3091 3089 3090 3087
2862 2875 2884 2896 2913 2928 2934 2941 2955 2964 2968 2979 2989 2996 2997 3008 3022 3026 3030 3037 3047 3053 3055 3060 3063 3066 3068 3070 3072 3075 3078 3079 3081 3082 3083 3084 3085 3087 3087 3087 3086 3085 3085 3083
2851 2863 2874 2883 2900 2913 2920 2933 2950 2958 2965 2970 2978 2972 2987 3000 3019 3019 3026 3035 3043 3046 3053 3058 3060 3062 3065 3066 3068 3070 3073 3075 3077 3077 3078 3079 3079 3079 3082 3082 3082 3081 3079 3079
2841 2853 2864 2874 2888 2898 2916 2928 2944 2949 2953 2959 2958 2975 2987 2996 3005 3014 3023 3031 3034 3044 3052 3053 3055 3057 3059 3060 3063 3066 3068 3071 3073 3073 3075 3077 3070 3071 3073 3073 3073 3073 3073 3073
2832 2845 2856 2866 2878 2893 2908 2924 2937 2942 2948 2956 2965 2971 2980 2996 3003 3005 3014 3023 3033 3041 3045 3048 3049 3050 3052 3054 3056 3060 3063 3065 3067 3070 3070 3068 3067 3067 3067 3067 3068 3068 3068 3069
2826 2839 2849 2862 2875 2887 2901 2913 2930 2938 2947 2947 2961 2970 2975 2984 2992 3004 3005 3020 3027 3033 3037 3041 3041 3042 3045 3048 3051 3055 3058 3061 3063 3064 3065 3065 3059 3061 3062 3062 3062 3065 3065 3066
2821 2834 2844 2859 2871 2884 2897 2910 2925 2933 2939 2947 2956 2962 2969 2983 2989 2994 3004 3012 3020 3025 3029 3033 3036 3038 3040 3040 3043 3049 3052 3055 3056 3057 3058 3056 3056 3056 3057 3058 3061 3060 3062 3063
2818 2829 2842 2856 2868 2879 2892 2906 2921 2931 2938 2946 2954 2961 2968 2979 2981 2984 2995 3008 3011 3016 3021 3027 3029 3032 3033 3036 3038 3041 3045 3049 3051 3053 3054 3053 3050 3051 3052 3053 3054 3057 3058 3059
2817 2829 2842 2854 2865 2878 2890 2904 2916 2928 2935 2944 2949 2953 2961 2970 2979 2986 2990 2995 3002 3009 3016 3019 3023 3025 3027 3032 3032 3036 3040 3041 3044 3047 3046 3045 3046 3046 3047 3049 3051 3053 3054 3056
2816 2829 2843 2854 2864 2878 2890 2902 2914 2927 2934 2943 2947 2952 2958 2964 2972 2981 2985 2991 2998 3004 3009 3014 3018 3018 3023 3025 3028 3032 3033 3036 3037 3040 3040 3041 3042 3043 3044 3046 3047 3048 3050 3052
2819 2831 2842 2854 2866 2881 2892 2899 2911 2926 2932 2940 2949 2951 2955 2959 2966 2974 2981 2990 2996 3000 3005 3009 3011 3014 3018 3020 3022 3029 3029 3029 3030 3032 3034 3036 3037 3040 3041 3041 3042 3043 3044 3046
2822 2832 2843 2856 2869 2882 2892 2904 2917 2929 2934 2936 2946 2949 2953 2959 2964 2970 2978 2984 2990 2995 3000 3002 3006 3009 3014 3014 3019 3018 3022 3021 3024 3025 3029 3030 3033 3035 3036 3036 3037 3038 3039 3040
2825 2836 2848 2862 2874 2881 2893 2904 2912 2925 2931 2939 2945 2947 2951 2956 2960 2966 2975 2979 2984 2990 2993 2997 3000 3002 3007 3009 3008 3011 3014 3017 3020 3021 3023 3025 3027 3029 3030 3031 3031 3032 3033 3033
2831 2844 2854 2865 2877 2888 2896 2902 2914 2920 2932 2933 2940 2945 2948 2954 2958 2962 2968 2973 2978 2984 2988 2991 2994 2999 3001 3001 3002 3007 3010 3012 3014 3016 3018 3020 3021 3022 3024 3025 3026 3027 3026 3026
2841 2851 2862 2874 2885 2897 2902 2911 2919 2929 2935 2936 2939 2942 2946 2950 2954 2958 2965 2969 2974 2978 2980 2986 2988 2991 2994 2995 2996 3001 3005 3006 3008 3011 3013 3015 3016 3016 3018 3019 3020 3020 3019 3019
2851 2860 2870 2879 2889 2896 2908 2917 2924 2930 2936 2937 2940 2940 2943 2944 2949 2956 2962 2967 2971 2972 2972 2980 2986 2986 2984 2985 2993 2998 3001 3002 3004 3006 3009 3008 3009 3010 3011 3012 3012 3012 3012 3012
2860 2869 2878 2885 2892 2902 2912 2920 2922 2928 2932 2935 2936 2938 2939 2939 2942 2951 2958 2961 2968 2969 2973 2977 2978 2976 2978 2981 2987 2991 2994 2996 2999 3000 3002 3003 3003 3004 3004 3005 3005 3005 3005 3005
2867 2875 2881 2889 2894 2903 2911 2914 2920 2923 2927 2930 2933 2936 2932 2933 2942 2949 2955 2958 2963 2965 2968 2970 2967 2967 2974 2978 2981 2985 2988 2990 2991 2993 2994 2993 2994 2995 2996 2998 2998 2998 2998 2998
2869 2874 2885 2894 2902 2910 2916 2917 2916 2918 2922 2926 2930 2933 2937 2937 2942 2948 2954 2957 2960 2959 2962 2964 2959 2965 2969 2972 2975 2977 2980 2981 2983 2984 2985 2986 2986 2986 2989 2990 2991 2991 2992 2992
2877 2887 2892 2898 2903 2910 2912 2912 2910 2911 2916 2923 2928 2933 2937 2941 2945 2946 2950 2953 2955 2956 2955 2954 2955 2960 2962 2964 2967 2969 2971 2973 2975 2978 2979 2979 2979 2981 2983 2985 2985 2986 2986 2986
2881 2887 2890 2897 2901 2903 2904 2907 2908 2912 2916 2922 2927 2931 2935 2937 2941 2944 2947 2950 2951 2950 2949 2949 2952 2954 2956 2958 2960 2964 2966 2968 2970 2971 2971 2974 2976 2977 2978 2980 2980 2980 2981 2982
2886 2891 2900 2897 2899 2901 2904 2906 2909 2913 2916 2922 2928 2932 2935 2936 2940 2942 2944 2945 2945 2947 2947 2948 2950 2952 2954 2956 2959 2962 2964 2965 2966 2968 2970 2971 2972 2973 2973 2974 2975 2977 2978 2978
2889 2893 2897 2899 2902 2905 2908 2910 2912 2915 2919 2924 2928 2932 2935 2937 2938 2940 2941 2944 2945 2946 2946 2948 2950 2951 2952 2954 2956 2958 2960 2962 2963 2965 2966 2967 2968 2969 2970 2972 2972 2973 2974 2974
2892 2896 2898 2900 2903 2905 2908 2912 2915 2918 2922 2925 2928 2930 2931 2933 2935 2938 2938 2939 2940 2941 2943 2944 2947 2949 2951 2953 2955 2956 2957 2959 2960 2961 2962 2964 2966 2967 2968 2969 2969 2970 2970 2970